Flag for Brazil

Past Weather in Tabatinga, Amazonas, Brazil — Yesterday and Last 2 Weeks

Now
82 °F

Partly sunny.


Feels Like: 91 °F
Forecast: 89 / 72 °F
Wind: No wind

Location: Leticia / Vasquez Cobo
Current Time: Oct 19, 2020 at 5:12:16 pm
Latest Report: Oct 19, 2020 at 4:00 pm
Visibility: N/A
Pressure29.72 "Hg
Humidity: 84%
Dew Point: 77 °F
Location of TabatingaLocation

Past Weather in Tabatinga — Graph

°F

Tabatinga Temperature Yesterday

Maximum temperature yesterday: 86 °F (at 2:00 pm)
Minimum temperature yesterday: 73 °F (at 6:00 am)
Average temperature yesterday: 78 °F

High & Low Weather Summary for the Past Weeks

 TemperatureHumidityPressure
High99 °F (Oct 12, 2:00 pm)100% (Oct 4, 7:00 pm)30.02 "Hg (Oct 4, 7:00 pm)
Low70 °F (Oct 5, 3:00 am)47% (Oct 12, 12:00 pm)29.71 "Hg (Oct 12, 4:00 pm)
Average80 °F88%29.87 "Hg
* Reported Oct 4 3:00 pm — Oct 19 3:00 pm, Tabatinga. Weather by CustomWeather, © 2020

Note: Actual official high and low records may vary slightly from our data, if they occured in-between our weather recording intervals... More about our weather records

Tabatinga Weather History for the Previous 24 Hours

Scroll right to see more
 ConditionsComfort  
Time TempWeatherWind HumidityBarometerVisibility
3:00 pm
Mon, Oct 19
84 °FPartly sunny.No wind84%29.72 "HgN/A
2:00 pm84 °FPartly sunny.3 mph79%29.76 "HgN/A
1:00 pm86 °FPartly sunny.2 mph75%29.78 "HgN/A
12:00 pm86 °FPartly sunny.No wind75%29.83 "HgN/A
11:00 am86 °FPartly sunny.5 mph75%29.87 "HgN/A
10:00 am84 °FPartly sunny.8 mph74%29.89 "HgN/A
9:00 am84 °FPartly sunny.6 mph84%29.89 "HgN/A
8:00 am81 °FPartly sunny.3 mph89%29.88 "HgN/A
7:00 am75 °FPartly sunny.2 mph100%29.84 "HgN/A
6:00 am73 °FBroken clouds.No wind100%29.80 "Hg5 mi
3:00 am73 °FPassing clouds.No wind100%29.78 "HgN/A
2:00 am73 °FPassing clouds.2 mph100%29.79 "HgN/A
1:00 am73 °FPassing clouds.No wind100%29.79 "HgN/A
12:00 am75 °FPassing clouds.No wind100%29.84 "HgN/A
11:00 pm
Sun, Oct 18
75 °FPassing clouds.2 mph100%29.85 "HgN/A
10:00 pm75 °FPassing clouds.No wind100%29.85 "HgN/A
9:00 pm75 °FPassing clouds.No wind100%29.83 "HgN/A
8:00 pm75 °FPassing clouds.No wind100%29.77 "HgN/A
6:00 pm79 °FPassing clouds.No wind94%29.73 "HgN/A
5:00 pm81 °FScattered clouds.5 mph89%29.73 "HgN/A
Weather by CustomWeather, © 2020

See weather overview